This demonstration page uses our WeatherBlox Daily Observations layout. Learn more.

Left ArrowRight Arrow

Hourly Observations for July 12, 2015

Temp ( °F °C ) Dew Point ( °F °C ) Humidity (%) Winds ( mph kmh ) Pressure ( in mb ) Visibility ( mi km ) Precip ( " mm )
12:53 am 00:53 Clear with Light Rain 80 26.7 62 16.7 54 54 SE 13 20 30.00 1016 10 16 0.00 0.03
1:53 am 01:53 Clear 78 25.6 62 16.7 58 58 SE 12 19 29.99 1016 10 16 0.00 0.03
2:53 am 02:53 Clear 76 24.4 62 16.7 62 62 SE 9 15 29.98 1015 10 16 0.00 0.00
3:53 am 03:53 Clear 74 23.3 62 16.7 67 67 SE 8 13 29.96 1015 10 16 0.00 0.00
4:53 am 04:53 Clear 73 22.8 62 16.7 69 69 SE 9 15 29.94 1014 10 16 0.00 0.00
5:53 am 05:53 Clear 71 21.7 62 16.7 73 73 SE 7 11 29.95 1014 10 16 0.00 0.00
6:53 am 06:53 Clear 70 21.1 62 16.7 76 76 ESE 8 13 29.96 1015 10 16 0.00 0.00
7:53 am 07:53 Sunny 72 22.2 62 16.7 71 71 SE 13 20 29.94 1014 10 16 0.00 0.00
8:53 am 08:53 Sunny 77 25 62 16.7 60 60 SSE 12 19 29.96 1015 10 16 0.00 0.00
9:53 am 09:53 Sunny 81 27.2 62 16.7 53 53 VRB 5 7 29.97 1015 10 16 0.00 0.00
10:53 am 10:53 Sunny 86 30 62 16.7 45 45 Calm 29.96 1015 10 16 0.00 0.00
11:53 am 11:53 Sunny 91 32.8 59 15 34 34 Calm 29.95 1014 10 16 0.00 0.00
12:53 pm 12:53 Sunny 96 35.6 58 14.4 28 28 VRB 3 6 29.94 1014 10 16 0.00 0.00
1:53 pm 13:53 Sunny 98 36.7 56 13.3 24 24 ESE 12 19 29.93 1013 10 16 0.00 0.00
2:53 pm 14:53 Sunny 101 38.3 53 11.7 20 20 undefined N/A 29.90 1013 10 16 0.00 0.00
3:53 pm 15:53 Sunny 101 38.3 47 8.3 16 16 SSE 9 15 29.88 1012 10 16 0.00 0.00
4:53 pm 16:53 Sunny 101 38.3 47 8.3 16 16 VRB 3 6 29.86 1011 10 16 0.00 0.00
5:53 pm 17:53 Sunny 101 38.3 48 8.9 17 17 VRB 6 9 29.84 1011 10 16 0.00 0.00
6:53 pm 18:53 Sunny 101 38.3 44 6.7 14 14 SE 10 17 29.83 1010 10 16 0.00 0.00
7:53 pm 19:53 Sunny 99 37.2 48 8.9 18 18 ESE 14 22 29.83 1010 10 16 0.00 0.00
8:53 pm 20:53 Sunny 94 34.4 52 11.1 24 24 SE 13 20 29.84 1011 10 16 0.00 0.00
9:53 pm 21:53 Clear 90 32.2 52 11.1 27 27 SE 12 19 29.86 1011 10 16 0.00 0.00
10:53 pm 22:53 Clear 88 31.1 58 14.4 36 36 SE 14 22 29.88 1012 10 16 0.00 0.00
11:53 pm 23:53 Clear 85 29.4 58 14.4 40 40 SE 13 20 29.89 1012 10 16 0.00 0.00

Powered by AerisWeather